Regional Weather Roundup
Issued by NWS

Home | Current Version | Previous Version | Text Only | Print | Product List | Glossary On
Versions: 1 2 3 4 5 6 7 8 9 10 11 12 13 14 15 16 17 18 19 20 21 22 23 24 25 26 27 28 29 30 31 32 33 34 35 36 37 38 39 40 41 42 43 44 45 46 47 48 49 50
626
ASUS42 KFFC 061603
RWRGA
WEATHER ROUNDUP FOR GEORGIA
NATIONAL WEATHER SERVICE PEACHTREE CITY GA
1100 AM EST SAT FEB 06 2016

NOTE: "FAIR" INDICATES FEW OR NO CLOUDS BELOW 12,000 FEET WITH NO
SIGNIFICANT WEATHER AND/OR OBSTRUCTIONS TO VISIBILITY.

* = USE WITH CAUTION. THE STATIONS MARKED WITH AN ASTERISK MAY NOT
REPORT WEATHER SUCH AS PRECIPITATION, FOG, OR THUNDER AND ARE NOT
QUALITY CONTROLLED BY NWS.

THE REMARK "TC" DENOTES TEMPERATURE READING IN DEGREES CELSIUS.

GAZ001>058-061700-
NORTH GEORGIA

CITY           SKY/WX    TMP DP  RH WIND       PRES   REMARKS
ATLANTA        CLOUDY    43  19  38 E5        30.38S
ATHENS         MOSUNNY   44  22  41 NE7       30.39F
CHAMBLEE       SUNNY     43  21  41 NE5       30.38S
PEACHTREE CITY SUNNY     46  21  37 VRB5      30.38F
ROME             N/A    N/A N/A N/A MISG      30.41F
WEST ATLANTA   MOSUNNY   43  18  36 VRB3      30.38F
GAINESVILLE    MOSUNNY   40  17  39 NE6       30.39F
CARTERSVILLE   CLOUDY    44  20  38 NE9       30.40F


CITY           SKY/WX    TMP DP  RH WIND       PRES   REMARKS
LAWRENCEVILLE* SUNNY     43  21  42 E10       30.38S
MARIETTA       PTSUNNY   43  18  37 VRB5      30.38S
KENNESAW*      MOSUNNY   41  21  45 CALM      30.40R
BLAIRSVILLE*     N/A     37  -7  14 CALM      30.37S
$$

GAZ059>098-102>109-061700-
CENTRAL GEORGIA

CITY           SKY/WX    TMP DP  RH WIND       PRES   REMARKS
AUGUSTA-BUSH   PTSUNNY   45  29  53 N6        30.38F
AUGUSTA-DANIEL CLOUDY    48  21  34 NE12      30.38F
COLUMBUS       SUNNY     48  22  35 SE6       30.37S
MACON          MOSUNNY   47  23  38 E9        30.38R
ROBINS AFB     MOSUNNY   48  17  29 E10       30.36F


CITY           SKY/WX    TMP DP  RH WIND       PRES   REMARKS
LAGRANGE*      SUNNY     48  29  48 SE3       30.37F
SYLVANIA*      CLOUDY    47  31  53 E7        30.36F
MILLEDGEVILLE* SUNNY     46  27  46 NE3       30.39S
$$

GAZ099>101-110>166-061700-
SOUTH GEORGIA

CITY           SKY/WX    TMP DP  RH WIND       PRES   REMARKS
SAVANNAH       CLOUDY    50  25  37 NE13      30.34F
VALDOSTA       CLOUDY    50  33  52 NE10      30.29F
ALMA           MOSUNNY   50  28  42 E7        30.32F
ST SIMONS      CLOUDY    51  40  65 NE13      30.32S
FT STEWART     CLOUDY    50  27  40 E8        30.32S
ALBANY         CLOUDY    48  27  44 NE6       30.36S
HUNTER AFB     CLOUDY    50  28  42 E12G20    30.31F
MOODY AFB      PTSUNNY   49  31  50 E10       30.28F
BRUNSWICK      CLOUDY    52  37  58 NE16      30.33F


CITY           SKY/WX    TMP DP  RH WIND       PRES   REMARKS
BAINBRIDGE*    CLOUDY    43  36  75 NW5       30.35S
MOULTRIE*      PTSUNNY   48  30  49 NE5       30.32S
VIDALIA*       CLOUDY    48  28  46 NE7       30.33F
WAYCROSS*      CLOUDY    53  33  47 E9        30.31F
DOUGLAS*       PTSUNNY   52  30  43 E8        30.33S
$$




USA.gov is the U.S. government's official web portal to all federal, state and local government web resources and services.